カタログに戻る

COSMOS 2510

運用中ナビゲーションHEO
NORAD 41032·PAYLOAD·🇷🇺 Russia

打ち上げ Nov 17, 2015 から Plesetsk Cosmodrome

Loading…

次のパス (今後24時間)

TLE

最新Source: Space-Track

元期: Sep 10, 2026, 02:30 UTC

1 41032U 15066A   26253.10460074 -.00001250  00000-0  00000-0 0  9997
2 41032  63.4454 334.4571 7192891 274.8701  14.0011  2.00671985 79170

AllMySatでCOSMOS 2510をリアルタイム追跡

Download on the App Store